Etusivu
METAR-TAF:

METAR-TAF

Lentoasemat :

Fort Madison Municipal Airport

Fort Madison, Iowa, Yhdysvallat

Leveyspiiri: 40-40N, Pituuspiiri: 091-20W, korkeus merenpinnasta: 221 m

Tämänhetkinen sää

Tämä raportti tehtiin 22 minuuttia sitten, kello 07.15 UTC
Tuuli 12 kn etelästä
Lämpötila -4°C
Kosteus 86%
Ilmanpaine 1024 hPa
Näkyvyys: 16.1 km

METAR: KFSW 220715Z AUTO 17012KT 10SM M04/M06 A3024 RMK AO2

Aika: 01:37 (07:37 UTC)


TAF: puuttuu

Säähavainnot ja -ennusteet yli 4000 lentoasemalta (METAR- ja TAF-raportit).

Käytössä olevat sääasemat on merkitty karttaan keltaisilla ja punaisilla pisteillä.

Aseta hiiri pisteen päälle nähdäksesi sääaseman nimen.

Klikkaa sitten nähdäksesi säähavainnot ja -ennusteet.

Kartan vaihtaminen: klikkaa mustalla rastilla varustettuja vihreitä pisteitä, niin voit zoomata sisään; viivalla varustettua vihreää pistettä, niin voit zoomata ulos tai vihreitä nuolia, niin pääset viereisille kartoille.


METAR-TAF: